Regional Weather Roundup
Issued by NWS

Home | Current Version | Previous Version | Graphics & Text | Print | Product List | Glossary On
Versions: 1 2 3 4 5 6 7 8 9 10 11 12 13 14 15 16 17 18 19 20 21 22 23 24 25 26 27 28 29 30 31 32 33 34 35 36 37 38 39 40 41 42 43 44 45 46 47 48 49 50
000
ASUS45 KSLC 202010
RWRUT

UTAH REGIONAL WEATHER ROUNDUP
NATIONAL WEATHER SERVICE SALT LAKE CITY UT
100 PM MST SAT DEC 20 2014

UTZ001>011-023>025-202100-

NORTHERN UTAH

CITY           SKY/WX    TMP DP  RH WIND       PRES   REMARKS
BRIGHAM CITY   CLOUDY    38  35  88 CALM      30.09F
HILL AFB       MIX PCPN  36  35  99 SW5       30.09S WCI  32
LOGAN          LGT RAIN  37  35  92 NW5       30.07F FOG     WCI  33
OGDEN          LGT RAIN  38  36  92 SW7       30.09S WCI  33
PROVO AIRPORT  CLOUDY    39  32  75 CALM      30.12S
SALT LAKE CITY LGT RAIN  39  35  86 W6        30.10S FOG     WCI  35
VERNAL         CLOUDY    32  23  69 CALM      30.11F
WENDOVER       CLOUDY    37  30  75 E5        30.08F WCI  34
HEBER CITY     FLURRIES  34  32  93 SW6       30.07S WCI  29
WEST JORDAN    CLOUDY    37  37 100 S10       30.10S WCI  30

$$

UTZ012>022-026-027-202100-

SOUTHERN/CENTRAL UTAH

CITY           SKY/WX    TMP DP  RH WIND       PRES   REMARKS
BLANDING       CLOUDY    32  31  94 CALM      30.20F
BRYCE CANYON   CLOUDY    30  24  78 SE7       30.12F WCI  23
CEDAR CITY     CLOUDY    42  29  59 SW15G22   30.08F
DELTA          CLOUDY    39  29  67 CALM      30.09F
MILFORD        CLOUDY    41  29  62 S18       30.08F
MOAB/CYNLANDS  CLOUDY    37  31  78 NW7       30.15S WCI  32
PRICE          CLOUDY    32  25  75 CALM      30.12F
ST GEORGE      CLOUDY    45  32  61 W3        30.17F
KANAB          CLOUDY    41  30  65 CALM      30.18F

$$

REGIONAL REPORTS     COLORADO/ARIZONA

CITY           SKY/WX    TMP DP  RH WIND       PRES   REMARKS
CRAIG, CO      CLOUDY    32  25  75 E8        30.08F WCI  25
GRAND JUNCTION MOSUNNY   38  23  55 N3        30.14F
RIFLE          CLOUDY    33  22  63 NE3       30.12F
MONTROSE       SUNNY     38  21  50 CALM      30.11F
CORTEZ         SUNNY     40  27  59 W6        30.13F
PAGE, AZ       CLOUDY    40  29  64 W5        30.17F
GRAND CANYON   PTSUNNY   43  26  51 SW9       30.14F
KINGMAN        MOSUNNY   53  31  42 CALM      30.13F
FLAGSTAFF      PTSUNNY   44  24  45 SW9       30.14F

$$

REGIONAL REPORTS    NEVADA/IDAHO/WYOMING

CITY           SKY/WX    TMP DP  RH WIND       PRES   REMARKS
LAS VEGAS, NV  PTSUNNY   54  37  52 S5        30.11F
ELY            CLOUDY    39  28  64 NE3       30.10F
ELKO           CLOUDY    36  34  92 CALM      30.07F
POCATELLO, ID  LGT RAIN  40  36  86 S14       30.02F WCI  32
BURLEY         CLOUDY    42  36  79 SW10      30.00F
EVANSTON, WY   LGT SNOW  31  30  96 SW13      30.02F VSB 1   WCI  21
ROCK SPRINGS   CLOUDY    33  26  75 SW13      30.01F WCI  24
KEMMERER       LGT SNOW  32  30  93 W12       30.00F VSB 1   WCI  23

$$



USA.gov is the U.S. government's official web portal to all federal, state and local government web resources and services.